Regional Weather Roundup
Issued by NWS

Home | Current Version | Previous Version | Graphics & Text | Print | Product List | Glossary On
Versions: 1 2 3 4 5 6 7 8 9 10 11 12 13 14 15 16 17 18 19 20 21 22 23 24 25 26 27 28 29 30 31 32 33 34 35 36 37 38 39 40 41 42 43 44 45 46 47 48 49 50
000
ASUS43 KOAX 300002
RWRNE

WEATHER ROUNDUP FOR NEBRASKA
NATIONAL WEATHER SERVICE OMAHA NE
700 PM CDT THU SEP 29 2016

NOTES: SATELLITE DATA IS BEING USED TO AUGMENT CLOUD COVER ABOVE
       12000 FEET.
       "FAIR" INDICATES FEW OR NO CLOUDS BELOW 12,000 FEET WITH NO
       SIGNIFICANT WEATHER AND/OR OBSTRUCTIONS TO VISIBILITY.

  * THESE STATIONS DO NOT REPORT WEATHER SUCH AS RAIN...SNOW OR FOG.

NEZ001>004-019>022-054>056-300100-
NEBRASKA PANHANDLE

CITY           SKY/WX    TMP DP  RH WIND       PRES   REMARKS
SCOTTSBLUFF    CLEAR     75  45  34 SE17      30.20S
6HR MIN TEMP:  73; 6HR MAX TEMP:  83;

ALLIANCE       CLEAR     71  42  35 SE15      30.25S
6HR MIN TEMP:  71; 6HR MAX TEMP:  78;

CHADRON        CLEAR     77  42  28 S18G25    30.18S
6HR MIN TEMP:  77; 6HR MAX TEMP:  82;

KIMBALL        CLEAR     74  43  33 SE14      30.25F
SIDNEY         CLEAR     73  43  33 SE17      30.26S
6HR MIN TEMP:  73; 6HR MAX TEMP:  79;

$$

NEZ057>060-069>072-079>082-300100-
SOUTHWEST NEBRASKA

CITY           SKY/WX    TMP DP  RH WIND       PRES   REMARKS
NORTH PLATTE   CLEAR     67  40  37 SE9       30.29S
6HR MIN TEMP:  67; 6HR MAX TEMP:  75;

IMPERIAL       CLEAR     69  40  34 SE13      30.28S
6HR MIN TEMP:  69; 6HR MAX TEMP:  76;

LEXINGTON      CLEAR     66  40  38 SE8       30.32S
MCCOOK         CLEAR     66  42  41 SE9       30.30S
6HR MIN TEMP:  66; 6HR MAX TEMP:  73;

OGALLALA       CLEAR     72  40  31 SE13      30.27S
$$

NEZ005>010-023>029-035>040-094-300100-
NORTH CENTRAL NEBRASKA

CITY           SKY/WX    TMP DP  RH WIND       PRES   REMARKS
VALENTINE      CLEAR     69  38  32 SE14      30.27F
6HR MIN TEMP:  68; 6HR MAX TEMP:  75;

AINSWORTH      CLEAR     65  43  44 SE9       30.30S
BROKEN BOW     CLEAR     64  43  46 SE10      30.31F
6HR MIN TEMP:  64; 6HR MAX TEMP:  70;

O`NEILL        CLEAR     65  42  43 SE7       30.33S
ORD            CLEAR     65  41  41 SE7       30.32S
6HR MIN TEMP:  64; 6HR MAX TEMP:  69;

THEDFORD       CLEAR     70  40  34 SE9       30.30S
$$

NEZ041-046>049-061>064-073>077-083>087-300100-
SOUTH CENTRAL NEBRASKA

CITY           SKY/WX    TMP DP  RH WIND       PRES   REMARKS
GRAND ISLAND   CLEAR     64  46  52 SE5       30.34R
6HR MIN TEMP:  62; 6HR MAX TEMP:  69;

AURORA         CLEAR     64  47  54 E3        30.34R
HASTINGS       CLEAR     65  44  46 SE7       30.34S
6HR MIN TEMP:  61; 6HR MAX TEMP:  69;

HEBRON         CLEAR     65  47  51 CALM      30.32S
HOLDREGE       CLEAR     65  42  43 SE6       30.32S
KEARNEY *      CLEAR     66  41  39 SE6       30.32S
YORK           CLEAR     63  46  55 E5        30.33S
$$

NEZ011>018-030>034-042>045-300100-
NORTHEAST NEBRASKA

CITY           SKY/WX    TMP DP  RH WIND       PRES   REMARKS
NORFOLK        CLEAR     64  45  49 E3        30.33F
6HR MIN TEMP:  63; 6HR MAX TEMP:  70;

ALBION         CLEAR     65  46  49 SE5       30.34R
BLAIR          CLEAR     66  49  54 N3        30.32F
FREMONT        CLEAR     66  47  50 CALM      30.33F
TEKAMAH        CLEAR     67  48  50 NE6       30.32F
6HR MIN TEMP:  67; 6HR MAX TEMP:  73;

WAYNE          CLEAR     64  49  59 E5        30.34F
$$

NEZ050>053-065>068-078-088>093-300100-
SOUTHEAST NEBRASKA

CITY           SKY/WX    TMP DP  RH WIND       PRES   REMARKS
LINCOLN        CLEAR     65  48  54 NE9       30.33F
6HR MIN TEMP:  65; 6HR MAX TEMP:  73;

OMAHA EPPLEY   CLEAR     68  48  48 NE6       30.32S
6HR MIN TEMP:  67; 6HR MAX TEMP:  73;

BEATRICE       CLEAR     66  48  51 NE5       30.31F
FALLS CITY     CLEAR     66  47  50 NE5       30.29F
6HR MIN TEMP:  66; 6HR MAX TEMP:  73;

NEBRASKA CITY  CLEAR     65  40  39 CALM      30.31S
PLATTSMOUTH    CLEAR     65  43  43 CALM      30.32S
$$

NEZ044-045-051>053-067-300100-
OMAHA AREA

CITY           SKY/WX    TMP DP  RH WIND       PRES   REMARKS
OMAHA EPPLEY   CLEAR     68  48  48 NE6       30.32S
6HR MIN TEMP:  67; 6HR MAX TEMP:  73;

BLAIR          CLEAR     66  49  54 N3        30.32F
FREMONT        CLEAR     66  47  50 CALM      30.33F
MILLARD        CLEAR     68  48  49 CALM      30.32S
OFFUTT AFB     CLEAR     67  49  52 NE3       30.30F
PLATTSMOUTH    CLEAR     65  43  43 CALM      30.32S
WAHOO          FAIR      64  48  56 CALM      30.33S
$$




USA.gov is the U.S. government's official web portal to all federal, state and local government web resources and services.